Time,TemperatureF,DewpointF,PressureIn,WindDirection,WindDirectionDegrees,WindSpeedMPH,WindSpeedGustMPH,Humidity,HourlyPrecipIn,Conditions,Clouds,dailyrainin,SoftwareType,DateUTC
2013-05-21 00:09:00,48.2,46.0,29.97,NNW,331,14.0,-999.0,91,-99.99,,,0.00,weatherlink.com 1.10,2013-05-21 07:09:00,
2013-05-21 00:23:00,48.6,46.0,29.96,NNW,344,11.0,-999.0,91,-99.99,,,0.00,weatherlink.com 1.10,2013-05-21 07:23:00,
2013-05-21 00:38:00,48.6,46.0,29.96,NNE,15,8.0,-999.0,91,-99.99,,,0.00,weatherlink.com 1.10,2013-05-21 07:38:00,
2013-05-21 00:54:00,48.6,46.0,29.95,North,355,11.0,-999.0,91,-99.99,,,0.00,weatherlink.com 1.10,2013-05-21 07:54:00,
2013-05-21 01:09:00,48.4,46.0,29.95,NNW,347,7.0,-999.0,91,-99.99,,,0.00,weatherlink.com 1.10,2013-05-21 08:09:00,
2013-05-21 01:24:00,48.1,46.0,29.95,North,9,6.0,-999.0,91,-99.99,,,0.00,weatherlink.com 1.10,2013-05-21 08:24:00,
2013-05-21 01:38:00,48.1,46.0,29.95,North,355,12.0,-999.0,91,-99.99,,,0.00,weatherlink.com 1.10,2013-05-21 08:38:00,
2013-05-21 01:53:00,48.3,46.0,29.96,North,355,11.0,-999.0,91,-99.99,,,0.00,weatherlink.com 1.10,2013-05-21 08:53:00,
2013-05-21 02:09:00,48.2,46.0,29.96,NNE,23,12.0,-999.0,92,-99.99,,,0.00,weatherlink.com 1.10,2013-05-21 09:09:00,
2013-05-21 02:24:00,48.1,46.0,29.96,NNE,17,3.0,-999.0,92,-99.99,,,0.00,weatherlink.com 1.10,2013-05-21 09:24:00,
2013-05-21 02:38:00,48.2,46.0,29.95,NNW,332,9.0,-999.0,91,-99.99,,,0.00,weatherlink.com 1.10,2013-05-21 09:38:00,
2013-05-21 02:53:00,48.2,46.0,29.96,NNW,348,9.0,-999.0,92,-99.99,,,0.00,weatherlink.com 1.10,2013-05-21 09:53:00,
2013-05-21 03:08:00,48.0,46.0,29.96,NNW,345,7.0,-999.0,91,-99.99,,,0.00,weatherlink.com 1.10,2013-05-21 10:08:00,
2013-05-21 03:24:00,47.9,46.0,29.96,NNW,347,13.0,-999.0,91,-99.99,,,0.00,weatherlink.com 1.10,2013-05-21 10:24:00,
2013-05-21 03:38:00,48.3,46.0,29.97,NNE,19,3.0,-999.0,90,-99.99,,,0.00,weatherlink.com 1.10,2013-05-21 10:38:00,
2013-05-21 03:52:00,48.0,45.0,29.97,North,360,5.0,-999.0,89,-99.99,,,0.00,weatherlink.com 1.10,2013-05-21 10:52:00,
2013-05-21 04:09:00,48.3,45.0,29.97,ENE,61,4.0,-999.0,88,-99.99,,,0.00,weatherlink.com 1.10,2013-05-21 11:09:00,
2013-05-21 04:24:00,49.6,46.0,29.98,ENE,73,6.0,-999.0,86,-99.99,,,0.00,weatherlink.com 1.10,2013-05-21 11:24:00,
2013-05-21 04:39:00,50.4,47.0,29.98,NNW,338,12.0,-999.0,87,-99.99,,,0.00,weatherlink.com 1.10,2013-05-21 11:39:00,
2013-05-21 04:53:00,50.6,47.0,29.98,NW,318,12.0,-999.0,88,-99.99,,,0.00,weatherlink.com 1.10,2013-05-21 11:53:00,
2013-05-21 05:09:00,50.7,48.0,29.98,North,11,5.0,-999.0,89,-99.99,,,0.00,weatherlink.com 1.10,2013-05-21 12:09:00,
2013-05-21 05:23:00,51.2,48.0,29.98,NNE,19,3.0,-999.0,90,-99.99,,,0.00,weatherlink.com 1.10,2013-05-21 12:23:00,
2013-05-21 05:38:00,51.5,48.0,29.98,NNW,327,11.0,-999.0,89,-99.99,,,0.00,weatherlink.com 1.10,2013-05-21 12:38:00,
2013-05-21 05:54:00,51.3,48.0,29.98,NW,317,14.0,-999.0,89,-99.99,,,0.00,weatherlink.com 1.10,2013-05-21 12:54:00,
2013-05-21 06:09:00,50.8,48.0,29.98,NE,55,8.0,-999.0,90,-99.99,,,0.00,weatherlink.com 1.10,2013-05-21 13:09:00,
2013-05-21 06:24:00,50.2,47.0,29.99,NNW,340,13.0,-999.0,90,-99.99,,,0.00,weatherlink.com 1.10,2013-05-21 13:24:00,
2013-05-21 06:38:00,49.9,47.0,29.99,North,355,12.0,-999.0,91,-99.99,,,0.00,weatherlink.com 1.10,2013-05-21 13:38:00,
2013-05-21 06:54:00,49.9,47.0,30.00,North,5,9.0,-999.0,91,-99.99,,,0.00,weatherlink.com 1.10,2013-05-21 13:54:00,
2013-05-21 07:08:00,50.2,47.0,30.00,NW,319,15.0,-999.0,88,-99.99,,,0.00,weatherlink.com 1.10,2013-05-21 14:08:00,
2013-05-21 07:24:00,50.5,47.0,30.00,East,80,6.0,-999.0,88,-99.99,,,0.00,weatherlink.com 1.10,2013-05-21 14:24:00,
2013-05-21 07:39:00,50.3,47.0,30.01,NNW,338,18.0,-999.0,89,-99.99,,,0.00,weatherlink.com 1.10,2013-05-21 14:39:00,
2013-05-21 07:54:00,50.3,47.0,30.01,North,360,5.0,-999.0,88,-99.99,,,0.00,weatherlink.com 1.10,2013-05-21 14:54:00,
2013-05-21 08:08:00,50.6,47.0,30.01,NNW,339,12.0,-999.0,88,-99.99,,,0.00,weatherlink.com 1.10,2013-05-21 15:08:00,
2013-05-21 08:24:00,51.0,47.0,30.02,NNW,331,19.0,-999.0,86,-99.99,,,0.00,weatherlink.com 1.10,2013-05-21 15:24:00,
2013-05-21 08:38:00,51.3,47.0,30.02,NNW,338,16.0,-999.0,84,-99.99,,,0.00,weatherlink.com 1.10,2013-05-21 15:38:00,
2013-05-21 08:54:00,51.9,46.0,30.02,NW,323,12.0,-999.0,81,-99.99,,,0.00,weatherlink.com 1.10,2013-05-21 15:54:00,
2013-05-21 09:09:00,52.9,46.0,30.02,North,5,18.0,-999.0,78,-99.99,,,0.00,weatherlink.com 1.10,2013-05-21 16:09:00,
2013-05-21 09:23:00,53.2,47.0,30.01,NNE,32,13.0,-999.0,78,-99.99,,,0.00,weatherlink.com 1.10,2013-05-21 16:23:00,
2013-05-21 09:38:00,53.7,46.0,30.02,North,355,21.0,-999.0,75,-99.99,,,0.00,weatherlink.com 1.10,2013-05-21 16:38:00,
2013-05-21 09:53:00,53.8,46.0,30.02,NE,37,13.0,-999.0,74,-99.99,,,0.00,weatherlink.com 1.10,2013-05-21 16:53:00,
2013-05-21 10:08:00,54.1,46.0,30.02,WNW,302,19.0,-999.0,75,-99.99,,,0.00,weatherlink.com 1.10,2013-05-21 17:08:00,
2013-05-21 10:23:00,55.1,48.0,30.02,NNE,19,8.0,-999.0,76,-99.99,,,0.00,weatherlink.com 1.10,2013-05-21 17:23:00,
2013-05-21 10:38:00,54.7,47.0,30.03,NNW,334,11.0,-999.0,76,-99.99,,,0.00,weatherlink.com 1.10,2013-05-21 17:38:00,
2013-05-21 10:53:00,54.6,48.0,30.04,NW,306,17.0,-999.0,78,-99.99,,,0.00,weatherlink.com 1.10,2013-05-21 17:53:00,
2013-05-21 11:08:00,54.7,48.0,30.04,WNW,302,14.0,-999.0,78,-99.99,,,0.00,weatherlink.com 1.10,2013-05-21 18:08:00,
2013-05-21 11:23:00,54.8,48.0,30.04,NNW,331,10.0,-999.0,78,-99.99,,,0.00,weatherlink.com 1.10,2013-05-21 18:23:00,
2013-05-21 11:38:00,54.1,48.0,30.04,NW,317,21.0,-999.0,79,-99.99,,,0.00,weatherlink.com 1.10,2013-05-21 18:38:00,
2013-05-21 11:53:00,54.3,48.0,30.04,NW,316,16.0,-999.0,80,-99.99,,,0.00,weatherlink.com 1.10,2013-05-21 18:53:00,
2013-05-21 12:09:00,54.8,49.0,30.04,NW,311,16.0,-999.0,80,-99.99,,,0.00,weatherlink.com 1.10,2013-05-21 19:09:00,
2013-05-21 12:23:00,54.4,48.0,30.04,NW,320,9.0,-999.0,80,-99.99,,,0.00,weatherlink.com 1.10,2013-05-21 19:23:00,
2013-05-21 12:38:00,54.3,48.0,30.04,NNW,327,16.0,-999.0,79,-99.99,,,0.00,weatherlink.com 1.10,2013-05-21 19:38:00,
2013-05-21 12:54:00,53.8,48.0,30.04,WNW,292,16.0,-999.0,80,-99.99,,,0.00,weatherlink.com 1.10,2013-05-21 19:54:00,
2013-05-21 13:09:00,54.9,49.0,30.04,NW,313,15.0,-999.0,80,-99.99,,,0.00,weatherlink.com 1.10,2013-05-21 20:09:00,
2013-05-21 13:23:00,53.9,48.0,30.04,NW,311,15.0,-999.0,81,-99.99,,,0.00,weatherlink.com 1.10,2013-05-21 20:23:00,
2013-05-21 13:39:00,53.8,48.0,30.04,NW,313,20.0,-999.0,81,-99.99,,,0.00,weatherlink.com 1.10,2013-05-21 20:39:00,
2013-05-21 13:53:00,55.4,49.0,30.04,WNW,301,20.0,-999.0,79,-99.99,,,0.00,weatherlink.com 1.10,2013-05-21 20:53:00,
2013-05-21 14:09:00,56.4,49.0,30.03,NW,307,13.0,-999.0,76,-99.99,,,0.00,weatherlink.com 1.10,2013-05-21 21:09:00,
2013-05-21 14:23:00,55.3,48.0,30.04,NNE,26,14.0,-999.0,76,-99.99,,,0.00,weatherlink.com 1.10,2013-05-21 21:23:00,
2013-05-21 14:39:00,55.3,48.0,30.04,North,9,11.0,-999.0,75,-99.99,,,0.00,weatherlink.com 1.10,2013-05-21 21:39:00,
2013-05-21 14:53:00,55.5,47.0,30.04,NNE,14,15.0,-999.0,74,-99.99,,,0.00,weatherlink.com 1.10,2013-05-21 21:53:00,
2013-05-21 15:08:00,55.3,47.0,30.04,NW,317,6.0,-999.0,74,-99.99,,,0.00,weatherlink.com 1.10,2013-05-21 22:08:00,
2013-05-21 15:24:00,56.4,49.0,30.04,North,349,12.0,-999.0,75,-99.99,,,0.00,weatherlink.com 1.10,2013-05-21 22:24:00,
2013-05-21 15:38:00,56.2,48.0,30.04,NE,39,7.0,-999.0,74,-99.99,,,0.00,weatherlink.com 1.10,2013-05-21 22:38:00,
2013-05-21 15:53:00,55.8,47.0,30.04,NNW,337,17.0,-999.0,73,-99.99,,,0.00,weatherlink.com 1.10,2013-05-21 22:53:00,
2013-05-21 16:09:00,55.2,47.0,30.03,NNW,336,10.0,-999.0,74,-99.99,,,0.00,weatherlink.com 1.10,2013-05-21 23:09:00,
2013-05-21 16:24:00,55.3,48.0,30.03,NNW,334,12.0,-999.0,75,-99.99,,,0.00,weatherlink.com 1.10,2013-05-21 23:24:00,
2013-05-21 16:39:00,54.5,47.0,30.03,ENE,67,15.0,-999.0,75,-99.99,,,0.00,weatherlink.com 1.10,2013-05-21 23:39:00,
2013-05-21 16:53:00,54.3,47.0,30.03,NNW,333,12.0,-999.0,75,-99.99,,,0.00,weatherlink.com 1.10,2013-05-21 23:53:00,
2013-05-21 17:08:00,54.6,47.0,30.03,North,355,9.0,-999.0,75,-99.99,,,0.00,weatherlink.com 1.10,2013-05-22 00:08:00,
2013-05-21 17:24:00,54.8,46.0,30.02,North,9,14.0,-999.0,72,-99.99,,,0.00,weatherlink.com 1.10,2013-05-22 00:24:00,
2013-05-21 17:38:00,54.5,46.0,30.03,ENE,67,5.0,-999.0,74,-99.99,,,0.00,weatherlink.com 1.10,2013-05-22 00:38:00,
2013-05-21 17:53:00,53.9,46.0,30.03,NW,323,23.0,-999.0,75,-99.99,,,0.00,weatherlink.com 1.10,2013-05-22 00:53:00,
2013-05-21 18:08:00,53.6,46.0,30.03,NNW,331,16.0,-999.0,74,-99.99,,,0.00,weatherlink.com 1.10,2013-05-22 01:08:00,
2013-05-21 18:23:00,53.4,45.0,30.03,NW,325,11.0,-999.0,74,-99.99,,,0.00,weatherlink.com 1.10,2013-05-22 01:23:00,
2013-05-21 18:38:00,53.1,45.0,30.03,NE,34,5.0,-999.0,74,-99.99,,,0.00,weatherlink.com 1.10,2013-05-22 01:38:00,
2013-05-21 18:53:00,52.2,45.0,30.03,NNW,332,11.0,-999.0,75,-99.99,,,0.00,weatherlink.com 1.10,2013-05-22 01:53:00,
2013-05-21 19:08:00,50.0,44.0,30.03,North,11,15.0,-999.0,79,-99.99,,,0.00,weatherlink.com 1.10,2013-05-22 02:08:00,
2013-05-21 19:24:00,49.7,43.0,30.04,NW,311,15.0,-999.0,79,-99.99,,,0.00,weatherlink.com 1.10,2013-05-22 02:24:00,
2013-05-21 19:39:00,49.9,44.0,30.04,North,355,11.0,-999.0,80,-99.99,,,0.00,weatherlink.com 1.10,2013-05-22 02:39:00,
2013-05-21 20:08:00,48.8,43.0,30.04,North,349,17.0,-999.0,80,-99.99,,,0.00,weatherlink.com 1.10,2013-05-22 03:08:00,
2013-05-21 20:24:00,48.2,43.0,30.04,NW,318,8.0,-999.0,81,-99.99,,,0.00,weatherlink.com 1.10,2013-05-22 03:24:00,
2013-05-21 20:39:00,47.8,43.0,30.04,NNW,344,14.0,-999.0,82,-99.99,,,0.00,weatherlink.com 1.10,2013-05-22 03:39:00,
2013-05-21 20:53:00,47.5,42.0,30.04,NNE,12,9.0,-999.0,82,-99.99,,,0.00,weatherlink.com 1.10,2013-05-22 03:53:00,
2013-05-21 21:09:00,47.5,42.0,30.05,NNW,340,8.0,-999.0,82,-99.99,,,0.00,weatherlink.com 1.10,2013-05-22 04:09:00,
2013-05-21 21:23:00,47.5,42.0,30.05,NNW,337,21.0,-999.0,82,-99.99,,,0.00,weatherlink.com 1.10,2013-05-22 04:23:00,
2013-05-21 21:38:00,47.4,43.0,30.06,NNW,347,9.0,-999.0,83,-99.99,,,0.00,weatherlink.com 1.10,2013-05-22 04:38:00,
2013-05-21 21:53:00,47.3,43.0,30.06,NE,36,13.0,-999.0,84,-99.99,,,0.00,weatherlink.com 1.10,2013-05-22 04:53:00,
2013-05-21 22:08:00,47.2,43.0,30.07,NNW,336,15.0,-999.0,84,-99.99,,,0.00,weatherlink.com 1.10,2013-05-22 05:08:00,
2013-05-21 22:23:00,47.2,43.0,30.07,NNW,346,10.0,-999.0,84,-99.99,,,0.00,weatherlink.com 1.10,2013-05-22 05:23:00,
2013-05-21 22:39:00,47.2,43.0,30.07,NNW,333,19.0,-999.0,85,-99.99,,,0.00,weatherlink.com 1.10,2013-05-22 05:39:00,
2013-05-21 22:53:00,46.9,43.0,30.08,NNE,13,9.0,-999.0,85,-99.99,,,0.00,weatherlink.com 1.10,2013-05-22 05:53:00,
2013-05-21 23:09:00,46.7,42.0,30.08,NNW,333,9.0,-999.0,84,-99.99,,,0.00,weatherlink.com 1.10,2013-05-22 06:09:00,
2013-05-21 23:23:00,46.7,42.0,30.08,NW,313,10.0,-999.0,84,-99.99,,,0.00,weatherlink.com 1.10,2013-05-22 06:23:00,
2013-05-21 23:38:00,46.4,42.0,30.08,NW,323,8.0,-999.0,83,-99.99,,,0.00,weatherlink.com 1.10,2013-05-22 06:38:00,
2013-05-21 23:54:00,46.0,41.0,30.08,NNW,329,15.0,-999.0,83,-99.99,,,0.00,weatherlink.com 1.10,2013-05-22 06:54:00,